This is the latest recevied weather packets stored in our database for station/object KD0ISH. If no packets are shown the sender has not sent any weather packets the latest 10 day(s).
| Time | Temp. | Humidity | Pressure | Rain* | Wind** | Luminosity | Snow |
|---|---|---|---|---|---|---|---|
| 1777947108 | 22.78° C | 63% | 1005.9 hPa | 0 mm | - | 0 W/m² | - |
| 1777946804 | 22.78° C | 63% | 1005.8 hPa | 0 mm | - | 0 W/m² | - |
| 1777946500 | 22.78° C | 65% | 1005.6 hPa | 0 mm | - | 0 W/m² | - |
| 1777946197 | 22.78° C | 65% | 1005.5 hPa | 0 mm | - | 0 W/m² | - |
| 1777945894 | 22.78° C | 65% | 1005.8 hPa | 0 mm | - | 0 W/m² | - |
| 1777945591 | 22.78° C | 65% | 1005.5 hPa | 0 mm | - | 0 W/m² | - |
| 1777945288 | 22.78° C | 64% | 1005.5 hPa | 0 mm | - | 0 W/m² | - |
| 1777944985 | 22.78° C | 64% | 1005.5 hPa | 0 mm | - | 0 W/m² | - |
| 1777944682 | 22.78° C | 64% | 1005.5 hPa | 0 mm | - | 0 W/m² | - |
| 1777944381 | 22.78° C | 64% | 1005.4 hPa | 0 mm | - | 0 W/m² | - |
| 1777944077 | 23.33° C | 62% | 1005.2 hPa | 0 mm | - | 0 W/m² | - |
| 1777943772 | 23.33° C | 62% | 1005.1 hPa | 0 mm | - | 0 W/m² | - |
| 1777943470 | 23.33° C | 62% | 1005.3 hPa | 0 mm | - | 0 W/m² | - |
| 1777943165 | 23.33° C | 61% | 1005.2 hPa | 0 mm | - | 0 W/m² | - |
| 1777942862 | 23.33° C | 60% | 1005.1 hPa | 0 mm | - | 0 W/m² | - |
| 1777942558 | 23.89° C | 61% | 1005.2 hPa | 0 mm | - | 1 W/m² | - |
| 1777942255 | 23.89° C | 60% | 1005.1 hPa | 0 mm | - | 3 W/m² | - |
| 1777941952 | 23.89° C | 60% | 1005.1 hPa | 0 mm | - | 5 W/m² | - |
| 1777941649 | 23.89° C | 59% | 1005.1 hPa | 0 mm | - | 9 W/m² | - |
| 1777941347 | 23.89° C | 59% | 1005 hPa | 0 mm | - | 7 W/m² | - |
| 1777941043 | 23.89° C | 59% | 1004.9 hPa | 0 mm | - | 10 W/m² | - |
| 1777940738 | 24.44° C | 60% | 1004.9 hPa | 0 mm | - | 15 W/m² | - |
| 1777940438 | 24.44° C | 60% | 1004.8 hPa | 0 mm | - | 23 W/m² | - |
| 1777940134 | 24.44° C | 59% | 1004.7 hPa | 0 mm | - | 27 W/m² | - |
| 1777939831 | 24.44° C | 58% | 1004.5 hPa | 0 mm | - | 29 W/m² | - |
* Rain latest hour (hover to see other rain measurements)
** Current wind speed in m/s (hover to see current wind gust speed)